Location: ????
(33.1659°N, 35.6604°E)
Time: 11:18:47
(UTC+00:00)

HJ-1C - Pass Details

Date: 20 September 2019
Orbit: 435 x 449 km, 97.2° (Epoch: 14 October)

Event Time Altitude Azimuth Distance (km) Brightness Sun altitude
Exits shadow 17:01:50 14° 179° (S) 1,321 5.6 -18.3°
Maximum altitude 17:04:35 64° 260° (W) 496 3.7 -18.9°
Drops below altitude 10° 17:07:57 10° 342° (NNW) 1,578 6.6 -19.5°
Sets 17:10:00 0° 346° (NNW) 2,455 7.5 -20.0°
